          31 12  21 31.58  +27 40.8   3.751  4.224    11.2 / 148  18.1   56  .43

     Nov.  1 12  21 32.04  +27 31.4   3.758  4.220    11.3 / 146  18.1   50  .53

           2 12  21 32.50  +27 21.9   3.764  4.217    11.4 / 145  18.1   46  .64

           3 12  21 32.99  +27 12.6   3.770  4.214    11.5 / 144  18.1   44  .73

           4 12  21 33.49  +27 03.3   3.777  4.210    11.5 / 143  18.1   45  .82

           5 12  21 34.01  +26 54.0   3.784  4.207    11.6 / 142  18.1   49  .89

           6 12  21 34.54  +26 44.8   3.791  4.204    11.7 / 141  18.1   55  .94

           7 12  21 35.09  +26 35.7   3.797  4.201    11.8 / 140  18.1   62  .98

           8 12  21 35.65  +26 26.7   3.805  4.198    11.9 / 139  18.1   69 1.00

           9 12  21 36.23  +26 17.7   3.812  4.194    12.0 / 138  18.1   78 1.00

          10 12  21 36.82  +26 08.8   3.819  4.191    12.0 / 137  18.1   86  .98

          11 12  21 37.43  +26 00.0   3.826  4.188    12.1 / 136  18.1   95  .95

          12 12  21 38.05  +25 51.2   3.834  4.185    12.2 / 135  18.1  103  .90

          13 12  21 38.69  +25 42.5   3.842  4.182    12.3 / 134  18.1  112  .83

          14 12  21 39.34  +25 34.0   3.849  4.179    12.4 / 133  18.1  120  .76

          15 12  21 40.01  +25 25.5   3.857  4.175    12.5 / 132  18.1  127  .67

          16 12  21 40.69  +25 17.1   3.865  4.172    12.6 / 131  18.1  133  .57

          17 12  21 41.39  +25 08.8   3.873  4.169    12.7 / 130  18.1  137  .47

          18 12  21 42.09  +25 00.5   3.881  4.166    12.7 / 130  18.1  139  .36

          19 12  21 42.82  +24 52.4   3.889  4.163    12.8 / 129  18.1  136  .26

          20 12  21 43.55  +24 44.4   3.898  4.160    12.9 / 128  18.1  131  .17

          21 12  21 44.30  +24 36.5   3.906  4.157    13.0 / 127  18.1  123  .09

          22 12  21 45.07  +24 28.6   3.915  4.154    13.1 / 126  18.1  113  .03

          23 12  21 45.84  +24 20.9   3.923  4.151    13.2 / 125  18.1  102  .00

          24 12  21 46.63  +24 13.3   3.932  4.148    13.3 / 124  18.1   90  .00

          25 12  21 47.43  +24 05.8   3.940  4.145    13.4 / 123  18.1   79  .04

          26 12  21 48.25  +23 58.4   3.949  4.142    13.5 / 123  18.1   68  .10

          27 12  21 49.08  +23 51.1   3.958  4.139    13.6 / 122  18.1   58  .18

          28 12  21 49.92  +23 43.9   3.967  4.136    13.7 / 121  18.1   49  .27

          29 12  21 50.77  +23 36.9   3.976  4.133    13.8 / 120  18.1   43  .37

          30 12  21 51.63  +23 29.9   3.985  4.130    13.9 / 120  18.1   39  .48

     Dec.  1 12  21 52.51  +23 23.1   3.994  4.127    14.0 / 119  18.1   39  .58

NAKANO

         **** Don't distribute anyone except personal use only ****

                (C) Copyright 2003 OAA/ComputingSection

write mail from CFAD0::NAKANO on 2003-10-19 01:36:43(JST).

 

◎C/2003 S4の軌道と予報位置です



  同じく,久万の中村彰正氏によって10月2日に観測されました.氏の CCD

18.6等でした.



    C/2003 S4 (LINEAR)                                                    

T 2004 June 5.87907 TT                                  Nakano

q   3.7383344            (2000.0)            P               Q

                   Peri.  158.72999     +0.86145014     -0.22867081

                   Node   223.96073     +0.31784259     +0.93915870

e   1.0            Incl.   40.78520     +0.39608049     -0.25630177

From 68 observations 2003 Sept. 26-Oct. 2.

 

Date/        TT  R.A.(2000) Decl.     Delta   r     Daily motion  Mag.  Moon Age

              h    h  m       。  ,                      ,  / PA 。  m1      。

2003 Oct.  1 12  21 25.73  +32 28.8   3.638  4.328     9.1 / 184  18.1   83  .35

           2 12  21 25.68  +32 19.7   3.639  4.324     9.2 / 182  18.1   74  .47

           3 12  21 25.65  +32 10.6   3.639  4.319     9.2 / 181  18.1   65  .58

           4 12  21 25.64  +32 01.3   3.640  4.315     9.3 / 180  18.1   58  .68

           5 12  21 25.64  +31 52.0   3.642  4.311     9.4 / 178  18.1   53  .78

           6 12  21 25.66  +31 42.6   3.643  4.307     9.5 / 177  18.1   50  .86

           7 12  21 25.70  +31 33.2   3.644  4.302     9.5 / 176  18.1   49  .92

           8 12  21 25.75  +31 23.7   3.646  4.298     9.6 / 175  18.1   50  .97

           9 12  21 25.82  +31 14.1   3.648  4.294     9.7 / 173  18.1   54  .99

          10 12  21 25.90  +31 04.5   3.650  4.290     9.7 / 172  18.1   59 1.00

          11 12  21 26.01  +30 54.8   3.652  4.285     9.8 / 171  18.1   66  .99

          12 12  21 26.13  +30 45.1   3.654  4.281     9.9 / 170  18.1   73  .96

          13 12  21 26.26  +30 35.4   3.657  4.277    10.0 / 169  18.0   81  .91

          14 12  21 26.41  +30 25.6   3.660  4.273    10.0 / 167  18.0   89  .85

          15 12  21 26.58  +30 15.8   3.663  4.269    10.1 / 166  18.0   97  .78

          16 12  21 26.77  +30 06.0   3.666  4.265    10.2 / 165  18.0  105  .69

          17 12  21 26.98  +29 56.2   3.669  4.260    10.3 / 164  18.0  112  .60

          18 12  21 27.20  +29 46.3   3.672  4.256    10.3 / 163  18.0  120  .50

          19 12  21 27.43  +29 36.5   3.676  4.252    10.4 / 161  18.0  126  .40

          20 12  21 27.69  +29 26.6   3.680  4.248    10.5 / 160  18.0  131  .30

          21 12  21 27.96  +29 16.8   3.684  4.244    10.6 / 159  18.0  133  .21

          22 12  21 28.25  +29 06.9   3.688  4.240    10.6 / 158  18.0  133  .13

          23 12  21 28.56  +28 57.1   3.692  4.236    10.7 / 157  18.0  129  .06

          24 12  21 28.88  +28 47.2   3.696  4.232    10.8 / 155  18.0  123  .02

          25 12  21 29.22  +28 37.4   3.701  4.228    10.9 / 154  18.0  115  .00

          26 12  21 29.57  +28 27.6   3.706  4.224    10.9 / 153  18.0  105  .01

          27 12  21 29.95  +28 17.8   3.710  4.220    11.0 / 152  18.0   95  .06

          28 12  21 30.34  +28 08.1   3.715  4.216    11.1 / 151  18.0   84  .13

          29 12  21 30.75  +27 58.4   3.720  4.212    11.2 / 150  18.0   74  .21

          30 12  21 31.17  +27 48.7   3.726  4.208    11.3 / 149  18.0   65  .32

          31 12  21 31.61  +27 39.1   3.731  4.204    11.3 / 148  18.0   56  .43

     Nov.  1 12  21 32.07  +27 29.5   3.737  4.200    11.4 / 147  18.0   50  .53

NAKANO

         **** Don't distribute anyone except personal use only ****

                (C) Copyright 2003 OAA/ComputingSection

write mail from CFAD0::NAKANO on 2003-10-04 04:26:09(JST).

 



戻ります。